This is the latest recevied weather packets stored in our database for station/object N4MGC. If no packets are shown the sender has not sent any weather packets the latest 1 day(s).
| Time | Temp. | Humidity | Pressure | Rain* | Wind** | Luminosity | Snow |
|---|---|---|---|---|---|---|---|
| 1778035350 | 20° C | 83% | 1010.5 hPa | 0 mm | 0 m/s | 0 W/m² | - |
| 1778035046 | 20° C | 82% | 1010.5 hPa | 0 mm | 0 m/s | 0 W/m² | - |
| 1778034743 | 20° C | 82% | 1010.7 hPa | 0 mm | 0 m/s | 0 W/m² | - |
| 1778034439 | 20° C | 83% | 1010.6 hPa | 0 mm | 0 m/s | 0 W/m² | - |
| 1778034138 | 20° C | 85% | 1010.6 hPa | 0 mm | 0 m/s | 0 W/m² | - |
| 1778033835 | 20° C | 83% | 1010.9 hPa | 0 mm | 0 m/s | 0 W/m² | - |
| 1778033532 | 20° C | 82% | 1010.8 hPa | 0 mm | 0 m/s | 0 W/m² | - |
| 1778033229 | 20° C | 84% | 1010.6 hPa | 0 mm | 0 m/s | 0 W/m² | - |
| 1778032927 | 20° C | 81% | 1010.9 hPa | 0 mm | 0 m/s | 0 W/m² | - |
| 1778032624 | 20° C | 82% | 1010.6 hPa | 0 mm | 0 m/s | 0 W/m² | - |
| 1778032321 | 20.56° C | 82% | 1010.5 hPa | 0 mm | 0 m/s | 0 W/m² | - |
| 1778032018 | 20.56° C | 81% | 1010.7 hPa | 0 mm | 0 m/s | 0 W/m² | - |
| 1778031714 | 20.56° C | 82% | 1010.8 hPa | 0 mm | 0 m/s | 0 W/m² | - |
| 1778031412 | 20.56° C | 81% | 1010.6 hPa | 0 mm | 0 m/s | 0 W/m² | - |
| 1778031109 | 20.56° C | 81% | 1010.4 hPa | 0 mm | 0 m/s | 0 W/m² | - |
| 1778030805 | 20.56° C | 81% | 1010.3 hPa | 0 mm | 0 m/s | 0 W/m² | - |
| 1778030502 | 20.56° C | 83% | 1010.7 hPa | 0 mm | 0 m/s | 0 W/m² | - |
| 1778030199 | 20.56° C | 82% | 1010.7 hPa | 0 mm | 0 m/s | 0 W/m² | - |
| 1778029896 | 20.56° C | 83% | 1010.7 hPa | 0 mm | 0 m/s | 0 W/m² | - |
| 1778029595 | 20.56° C | 80% | 1011 hPa | 0 mm | 0 m/s | 0 W/m² | - |
| 1778029291 | 21.11° C | 80% | 1011.1 hPa | 0 mm | 0 m/s | 0 W/m² | - |
| 1778028988 | 21.11° C | 79% | 1011.1 hPa | 0 mm | 0 m/s | 0 W/m² | - |
| 1778028685 | 21.11° C | 79% | 1010.7 hPa | 0 mm | 0 m/s | 0 W/m² | - |
| 1778028381 | 21.11° C | 78% | 1011.2 hPa | 0 mm | 0 m/s | 0 W/m² | - |
| 1778028079 | 21.67° C | 77% | 1010.9 hPa | 0 mm | 0 m/s | 0 W/m² | - |
* Rain latest hour (hover to see other rain measurements)
** Current wind speed in m/s (hover to see current wind gust speed)